Location: M�ckern
(52.1410°N, 11.9520°E)
Time: 09:14:57
(UTC+00:00)

Daily predictions for brighter satellites

Satellite Brightness Start Highest point End
(mag) Time Altitude Azimuth Time Altitude Azimuth Time Altitude Azimuth
Cosmos 1461 3.2 20:04:43 10° SSW 20:08:42 45° ESE 20:12:55 10° NE
STARLINK-1225 3.7 20:04:58 10° SW 20:09:02 59° SSE 20:13:08 10° ENE
SAR-Lupe-2 3.9 20:06:27 10° NNE 20:09:57 46° E 20:13:25 10° S
Okean 3 4.1 20:06:40 10° SSW 20:10:56 63° WNW 20:15:14 10° N
STARLINK-1271 3.8 20:07:33 10° W 20:11:43 82° N 20:15:53 10° E
STARLINK-1104 3.9 20:08:05 10° WNW 20:12:09 56° SSW 20:16:13 10° SE
Cosmos 2369 Rocket 3.7 20:08:33 10° SE 20:12:13 18° E 20:15:52 10° ENE
STARLINK-1212 3.1 20:10:35 10° W 20:13:42 75° N 20:16:48 10° E
STARLINK-1230 3.6 20:09:54 10° WSW 20:14:00 62° SSE 20:18:07 10° ENE
STARLINK-1105 3.0 20:11:03 10° W 20:14:10 75° N 20:17:16 10° E
NOSS 2-2 (C) 4.3 20:12:02 10° S 20:15:00 24° ESE 20:18:14 10° ENE
STARLINK-1247 3.1 20:11:56 10° W 20:15:04 75° N 20:18:11 10° E
STARLINK-1227 3.0 20:12:26 10° W 20:15:33 75° N 20:18:39 10° E
SL-4 R/B 4.1 20:15:33 10° W 20:16:22 11° WSW 20:17:11 10° SW
STARLINK-1226 3.0 20:13:16 10° W 20:16:24 75° N 20:19:32 10° E
STARLINK-1154 3.8 20:12:32 10° W 20:16:42 81° N 20:20:52 10° E
STARLINK-1144 3.9 20:13:05 10° WNW 20:17:08 53° SSW 20:21:10 10° SE
STARLINK-1215 3.0 20:14:11 10° W 20:17:18 75° N 20:20:26 10° E
Cosmos 2221 Rocket 4.3 20:14:22 10° SSW 20:18:50 59° WNW 20:23:22 10° N
NOSS 3-2 (A) 4.1 20:11:41 10° NW 20:18:58 81° NE 20:27:17 10° SE
STARLINK-1243 3.6 20:14:52 10° WSW 20:18:59 65° SSE 20:23:06 10° ENE
STARLINK-1217 3.0 20:16:00 10° W 20:19:08 76° N 20:22:15 10° E
ATLAS 2AS CENTAUR R/B 4.4 20:14:34 10° SE 20:19:24 18° ESE 20:24:13 10° ENE
SPOT 5 3.4 20:14:51 10° SSE 20:20:00 59° ENE 20:25:18 10° N
STARLINK-1229 3.0 20:16:54 10° W 20:20:03 76° N 20:23:10 10° E
STARLINK-1270 3.0 20:17:48 10° W 20:20:56 76° N 20:24:03 10° E
OPS 6432 4.4 20:18:05 10° NW 20:21:07 78° NE 20:24:49 10° SE
STARLINK-1197 3.8 20:17:30 10° W 20:21:40 80° N 20:25:49 10° E
STARLINK-1103 4.0 20:18:03 10° WNW 20:22:05 50° SSW 20:26:06 10° SE
NOSS 8 (F) 4.1 20:19:03 10° SSW 20:22:09 63° SE 20:25:12 10° NE
Meteor 1-13 Rocket 4.4 20:16:52 10° SSW 20:22:31 82° WNW 20:28:21 10° NNE
STARLINK-1189 3.0 20:19:36 10° W 20:22:43 77° N 20:25:51 10° E
STARLINK-1188 3.0 20:20:31 10° W 20:23:38 77° N 20:26:46 10° E
STARLINK-1236 3.6 20:19:49 10° WSW 20:23:56 68° SSE 20:28:04 10° ENE
STARLINK-1187 3.0 20:21:35 10° W 20:24:42 79° N 20:27:48 10° E
ERS-1 Rocket 3.1 20:20:11 10° SSE 20:25:12 73° ENE 20:30:14 10° NNW
STARLINK-1191 3.0 20:22:57 10° W 20:26:04 77° N 20:29:10 10° E
STARLINK-1198 3.8 20:22:29 10° W 20:26:38 79° N 20:30:48 10° E
STARLINK-1221 3.0 20:23:55 10° W 20:27:01 78° N 20:30:08 10° E
STARLINK-1101 4.1 20:23:02 10° WNW 20:27:02 48° SSW 20:31:00 10° SE
STARLINK-1222 3.0 20:24:45 10° W 20:27:53 78° N 20:30:59 10° E
STARLINK-1214 3.0 20:25:39 10° W 20:28:46 78° N 20:31:53 10° E
Cosmos 1066 Rocket 4.1 20:24:49 10° S 20:30:08 67° E 20:35:27 10° NNE
USA 238 DEB 3.9 20:23:44 10° NW 20:30:55 88° NE 20:38:22 10° SE
USA 238 3.9 20:23:50 10° NW 20:31:01 88° NE 20:38:29 10° SE
USA 245 3.4 20:28:50 10° S 20:31:35 40° WSW 20:33:58 10° NNW
STARLINK-1199 3.8 20:27:29 10° W 20:31:39 78° N 20:35:48 10° E
STARLINK-1102 4.1 20:28:02 10° WNW 20:32:00 45° SSW 20:35:48 11° SE
Cosmos 968 Rocket 4.5 20:27:40 10° NNW 20:32:28 37° NE 20:37:12 10° ESE
Okean 1 Rocket 3.2 20:28:29 10° NNW 20:32:59 83° W 20:37:26 10° S
STARLINK-1228 3.2 20:29:42 10° WNW 20:33:13 87° NNE 20:36:44 10° E
Cosmos 1470 4.5 20:30:17 10° NNE 20:33:17 21° ENE 20:36:16 10° ESE
Cosmos 1805 3.4 20:29:23 10° N 20:33:18 64° ENE 20:37:07 10° SSE
STARLINK-1269 3.5 20:29:45 10° WSW 20:33:53 74° SSE 20:38:03 10° ENE
Cosmos 2278 Rocket 3.4 20:29:46 10° SW 20:35:16 49° NW 20:40:48 10° NNE
TSX-5 4.2 20:29:56 10° SSW 20:35:19 77° ESE 20:39:30 10° NE
Resurs 01 Rocket 3.5 20:31:37 10° SSW 20:35:24 27° W 20:39:12 10° NW
STARLINK-1235 3.0 20:33:20 10° WNW 20:36:35 86° NNE 20:39:50 10° E
STARLINK-1210 3.8 20:32:27 10° W 20:36:37 78° N 20:40:47 10° E
Nadezhda 4 Rocket 4.0 20:30:32 10° S 20:36:37 72° E 20:42:43 10° NNE
STARLINK-1111 4.2 20:33:01 10° WNW 20:36:57 42° SSW 20:40:34 12° SE
Cosmos 1455 Rocket 3.9 20:34:29 10° N 20:38:34 38° ENE 20:42:18 12° SE
STARLINK-1200 3.5 20:34:42 10° WSW 20:38:51 77° SSE 20:43:00 10° ENE
STARLINK-1219 3.8 20:37:26 10° W 20:41:36 78° N 20:45:45 10° E
STARLINK-1073 4.3 20:38:01 10° W 20:41:55 40° SSW 20:45:22 13° SE
SL-8 R/B 4.4 20:37:49 10° W 20:42:14 37° SSW 20:46:17 12° SE
STARLINK-1192 3.5 20:39:41 10° WSW 20:43:50 80° SSE 20:48:00 10° ENE
ATLAS CENTAUR R/B 3.1 20:44:27 10° NW 20:45:55 19° N 20:47:24 10° NE
STARLINK-1211 3.8 20:42:26 10° W 20:46:37 78° N 20:50:46 10° E
STARLINK-1121 4.4 20:43:01 10° W 20:46:52 38° SSW 20:50:08 13° SSE
Cosmos 371 Rocket 4.4 20:42:20 10° SW 20:47:04 49° WNW 20:51:50 10° NNE
SL-4 R/B 3.7 20:45:19 10° S 20:48:38 19° SE 20:51:59 10° E
STARLINK-1244 3.6 20:44:39 10° WSW 20:48:48 82° SSE 20:52:58 10° ENE
Terra 1.9 20:44:22 11° SSE 20:48:52 74° ENE 20:53:38 10° NNW
Cosmos 1110 Rocket 3.9 20:43:55 10° SSW 20:49:05 75° ESE 20:54:17 10° NNE
Abrixas rocket 3.9 20:48:38 10° WSW 20:50:32 16° SSW 20:51:50 13° S
SPOT 1/Viking Rocket 4.1 20:46:01 10° S 20:51:05 56° W 20:56:10 10° NNW
STARLINK-1245 3.8 20:47:25 10° W 20:51:35 78° N 20:55:44 10° E
STARLINK-1106 4.5 20:48:02 10° W 20:51:50 36° SSW 20:54:56 14° SSE
Cosmos 1842 4.1 20:48:52 13° SSE 20:51:54 35° E 20:55:28 10° NNE
CARTOSAT-1 3.7 20:47:51 10° S 20:52:09 72° WSW 20:56:30 10° NNW
ERBS 3.6 20:49:55 10° W 20:53:07 43° NNW 20:56:19 10° ENE
NOSS 8 (H) 4.0 20:50:14 10° SW 20:53:18 77° SE 20:56:26 10° NE
STARLINK-1138 3.6 20:49:38 10° WSW 20:53:47 85° SSE 20:57:57 10° ENE
STARLINK-1234 2.9 20:51:06 10° WNW 20:54:23 82° SSW 20:57:40 10° ESE
STARLINK-1233 3.8 20:52:22 10° W 20:56:32 78° N 21:00:42 10° E
STARLINK-1143 3.6 20:54:35 10° WSW 20:58:45 87° S 21:02:55 10° ENE
STARLINK-1209 2.9 20:57:04 10° WNW 21:00:22 76° SSW 21:03:27 11° ESE
STARLINK-1204 3.8 20:57:22 10° W 21:01:32 78° N 21:05:42 10° E
STARLINK-1241 3.6 20:59:36 10° WSW 21:03:46 89° S 21:07:56 10° ENE
Cosmos 1331 Rocket 4.0 21:00:43 10° SSW 21:05:53 90° W 21:11:07 10° NNE
Cosmos 1733 3.2 21:02:34 10° NNW 21:06:25 82° W 21:09:32 15° S
STARLINK-1238 3.7 21:02:22 10° W 21:06:33 79° N 21:10:42 10° E
Aureole 2 Rocket 3.4 21:03:43 10° SW 21:06:39 40° WNW 21:09:27 10° NNE
STARLINK-1239 3.6 21:04:34 10° WSW 21:08:44 89° NNW 21:12:54 10° ENE
STARLINK-1201 3.7 21:07:21 10° W 21:11:31 80° N 21:15:41 10° E
COSMOS 2455 4.3 21:09:44 13° SE 21:12:34 18° ESE 21:16:33 10° ENE
STARLINK-1240 3.6 21:09:33 10° W 21:13:42 87° N 21:17:52 10° E
Cosmos 1378 3.4 21:10:09 10° SSW 21:13:50 66° WNW 21:17:33 10° N
Cosmos 1486 Rocket 4.0 21:08:38 10° NNW 21:13:59 85° ENE 21:18:13 16° SSE
Cosmos 1833 4.4 21:08:47 10° NNW 21:14:25 65° NE 21:19:13 14° SE
Cosmos 1544 Rocket 3.7 21:11:08 10° N 21:15:26 62° ENE 21:18:39 17° SSE
USA 215 3.5 21:08:55 10° E 21:15:26 72° NNE 21:21:58 10° WNW
Cosmos 1302 Rocket 4.1 21:10:46 10° S 21:16:00 64° ESE 21:21:15 10° NNE
STARLINK-1206 3.7 21:12:21 10° W 21:16:31 80° N 21:20:41 10° E
Cosmos 1271 Rocket 3.8 21:14:22 17° SE 21:16:37 30° E 21:20:04 10° NNE
MTI 3.7 21:13:37 10° NNE 21:16:46 62° ESE 21:18:58 18° S
Cosmos 1242 Rocket 3.2 21:15:26 18° SSE 21:17:45 40° E 21:21:14 10° NNE
STARLINK-1203 3.7 21:14:22 10° W 21:18:35 85° N 21:22:49 10° E
STARLINK-1216 3.6 21:14:31 10° W 21:18:41 85° N 21:22:50 10° E
STARLINK-60 4.2 21:20:10 21° SSE 21:20:26 22° SE 21:22:57 10° E
STARLINK-1205 3.7 21:17:19 10° W 21:21:30 82° N 21:25:39 10° E
Cosmos 1092 Rocket 4.0 21:16:00 10° S 21:22:10 87° WNW 21:28:22 10° N
NOSS 2-2 (D) 3.2 21:19:33 10° SW 21:23:10 89° SE 21:27:25 10° NE
CENTAUR R/B 3.2 21:15:34 10° NW 21:23:27 83° SW 21:31:08 14° SE
STARLINK-1237 3.7 21:19:30 10° W 21:23:40 84° N 21:27:50 10° E
Lacrosse 4 Rocket 4.5 21:23:29 10° N 21:25:15 12° NNE 21:27:01 10° NE
STARLINK-1218 3.7 21:22:19 10° W 21:26:30 83° N 21:30:39 10° E
Cosmos 1707 3.8 21:24:35 18° SE 21:26:42 31° E 21:30:11 10° NNE
ATLAS 3B R/B 3.0 21:20:05 10° NW 21:26:49 66° NE 21:33:43 10° ESE
SL-27 R/B 2.9 21:23:37 10° NNW 21:27:10 56° WSW 21:29:28 19° S
STARLINK-1202 3.7 21:24:30 10° W 21:28:39 82° N 21:32:49 10° E
NOSS 3-2 (C) 4.1 21:21:19 10° NW 21:28:40 73° SW 21:35:36 16° SSE
Cosmos 1766 4.4 21:25:36 10° NNW 21:29:19 38° W 21:32:47 11° SSW
Cosmos 1726 3.3 21:27:11 10° N 21:30:33 31° ENE 21:32:50 17° SE
STARLINK-1254 3.6 21:27:18 10° W 21:31:28 84° N 21:35:38 10° E
ALOS 2 4.0 21:30:24 13° ESE 21:33:42 29° ENE 21:37:31 10° N
Cosmos 1867 3.6 21:28:11 10° NW 21:33:42 84° NE 21:38:06 16° SE
COSMOS 2487 3.5 21:31:32 10° N 21:34:47 36° ENE 21:37:03 17° ESE
STARLINK-1231 3.6 21:32:16 10° W 21:36:27 86° NNE 21:40:36 10° E
STARLINK-1246 3.7 21:34:29 10° W 21:38:38 80° N 21:42:48 10° E
Cosmos 1943 Rocket 2.2 21:33:43 10° SSW 21:39:17 90° WNW 21:44:56 10° NNE
Cosmos 1992 Rocket 4.5 21:36:08 18° SSE 21:39:36 43° ESE 21:44:31 10° NE
NOSS 2-2 (E) 3.9 21:36:54 10° WSW 21:40:32 59° NW 21:44:57 10° NE
NOSS 3-4 (A) 4.0 21:36:32 15° S 21:40:50 37° ESE 21:46:35 10° NE
NOSS 3-4 (C) 4.0 21:36:40 16° S 21:40:56 37° ESE 21:46:42 10° NE
STARLINK-1232 3.6 21:37:16 10° WNW 21:41:27 87° NNE 21:45:36 10° ESE
SeaSat 1 3.2 21:37:23 10° NE 21:41:52 33° ESE 21:44:35 20° SSE
EO 1 Del DPAF 3.8 21:38:54 10° NNE 21:42:32 42° E 21:44:29 23° SSE
STARLINK-1224 3.7 21:39:27 10° W 21:43:37 79° N 21:47:47 10° E
STARLINK-1208 3.6 21:42:14 10° WNW 21:46:24 89° N 21:50:34 10° ESE
STARLINK-1225 3.7 21:44:27 10° W 21:48:37 79° N 21:52:47 10° E
Cosmos 1975 Rocket 3.6 21:44:36 10° SSW 21:48:54 56° WNW 21:53:16 10° N
STARLINK-1212 3.0 21:46:27 10° W 21:49:29 50° SSW 21:50:46 28° SE
STARLINK-1105 3.1 21:46:55 10° W 21:49:57 50° SSW 21:51:13 29° SE
Meteor 2-10 4.0 21:45:15 10° N 21:50:19 71° ENE 21:53:43 21° SSE
STARLINK-1247 3.1 21:47:48 10° W 21:50:50 50° SSW 21:52:06 29° SE
STARLINK-1227 3.1 21:48:17 10° W 21:51:19 49° SSW 21:52:32 29° SE
STARLINK-1271 3.6 21:47:14 10° WNW 21:51:24 88° SSW 21:55:34 10° ESE
STARLINK-1226 3.1 21:49:09 10° W 21:52:11 49° SSW 21:53:24 29° SE
BREEZE-M DEB (TANK) 3.4 21:40:12 10° WSW 21:52:15 61° S 21:55:45 10° E
Cosmos 292 Rocket 3.7 21:48:20 14° SSW 21:52:32 79° ESE 21:57:26 10° NNE
BREEZE-M DEB (TANK) 2.9 21:49:04 10° W 21:52:48 56° S 21:56:42 10° ESE
STARLINK-1215 3.1 21:50:03 10° W 21:53:05 48° SSW 21:54:17 29° SSE
STARLINK-1230 3.7 21:49:26 10° W 21:53:35 78° N 21:57:45 10° E
S3M 4.0 21:47:26 10° N 21:53:38 80° E 21:58:11 20° SSE
Cosmos 2227 Rocket 4.2 21:49:07 10° NNW 21:53:42 24° NE 21:58:15 10° E
RESURS DK-1 4.4 21:53:56 13° ESE 21:54:44 13° ESE 21:56:45 10° ENE
STARLINK-1217 3.1 21:51:52 10° W 21:54:53 47° SSW 21:56:00 30° SSE
Cosmos 2369 Rocket 2.2 21:49:47 10° SSW 21:55:28 88° ESE 22:01:09 10° NNE
STARLINK-1229 3.2 21:52:47 10° W 21:55:48 46° SSW 21:56:54 31° SSE
STARLINK-1154 3.5 21:52:13 10° WNW 21:56:23 86° SSW 22:00:33 10° ESE
STARLINK-1270 3.2 21:53:40 10° W 21:56:41 46° SSW 21:57:45 31° SSE
Aureole 3 Rocket 4.5 21:51:18 10° NNW 21:57:15 71° W 22:03:54 16° S
STARLINK-1189 3.2 21:55:28 10° W 21:58:29 45° SSW 21:59:29 32° SSE
STARLINK-1243 3.7 21:54:26 10° W 21:58:35 78° N 22:02:45 10° E
STARLINK-1188 3.2 21:56:22 10° W 21:59:23 44° SSW 22:00:22 32° SSE
Cosmos 1340 Rocket 3.0 21:56:08 10° N 22:00:11 63° ENE 22:02:31 24° SSE
STARLINK-1187 3.4 21:57:30 10° W 22:00:26 40° SSW 22:01:14 32° SSE
ATLAS CENTAUR R/B 2.2 21:59:35 24° SSE 22:01:15 32° ESE 22:04:56 10° ENE
STARLINK-1197 3.5 21:57:11 10° WNW 22:01:20 84° SSW 22:05:30 10° ESE
STARLINK-1191 3.3 21:58:50 10° W 22:01:48 43° SSW 22:02:39 33° SSE
Aureole 3 3.6 21:58:56 10° N 22:02:05 39° ENE 22:03:24 25° SE
STARLINK-1221 3.3 21:59:47 10° W 22:02:45 42° SSW 22:03:35 33° SSE
Thor Agena Rocket 3.6 21:58:00 10° NNE 22:03:20 75° ESE 22:07:11 19° S
STARLINK-1236 3.7 21:59:24 10° W 22:03:34 78° N 22:07:43 10° E
STARLINK-1222 3.3 22:00:38 10° W 22:03:36 42° SSW 22:04:23 33° SSE
STARLINK-1214 3.3 22:01:32 10° W 22:04:30 41° SSW 22:05:15 34° SSE
NOSS 2-2 (C) 4.4 22:01:40 10° WSW 22:05:14 47° NW 22:09:32 10° NE
Cosmos 1908 4.2 22:01:41 10° N 22:05:15 36° ENE 22:07:21 20° SE
Cosmos 1025 Rocket 2.9 22:02:57 22° S 22:05:41 83° E 22:10:02 10° NNE
STARLINK-1198 3.5 22:02:10 10° WNW 22:06:19 81° SSW 22:10:28 10° ESE
EXPRESS MD2 4.2 22:02:14 10° WSW 22:06:26 71° S 22:15:18 10° E
Cosmos 1553 Rocket 4.2 22:00:51 10° NNW 22:07:06 66° W 22:11:43 18° S
BREEZE M DEB (TANK) 1.9 22:05:44 10° WSW 22:08:29 45° S 22:08:33 44° S
Cosmos 1953 2.2 22:04:31 10° N 22:08:31 88° ENE 22:10:41 26° S
ATLAS 2AS CENTAUR R/B 3.1 22:01:12 10° SSW 22:09:02 63° SE 22:16:49 10° NE
Cosmos 1656 Rocket 3.7 22:04:50 17° SSW 22:09:06 63° ESE 22:14:37 10° NE
BREEZE-M DEB (TANK) 4.4 21:57:25 10° WNW 22:09:24 43° SW 22:11:56 23° SSE
Cosmos 1470 3.6 22:05:52 10° NNW 22:09:33 41° W 22:11:51 20° SSW
STARLINK-1228 3.9 22:07:02 10° W 22:10:16 35° SSW 22:11:08 30° S
STARLINK-1199 3.5 22:07:10 10° WNW 22:11:19 79° SSW 22:15:21 11° ESE
STARLINK-1235 3.8 22:09:46 10° W 22:12:43 33° SSW 22:13:12 31° S
STARLINK-1269 3.7 22:09:23 10° W 22:13:33 78° N 22:17:42 10° E
APEX 4.2 22:07:18 10° SSW 22:13:42 89° ESE 22:18:50 10° NNE
Cosmos 968 Rocket 4.2 22:09:30 10° NW 22:14:21 42° WSW 22:17:31 20° SSW
Cosmos 2292 Rocket 3.5 22:13:24 28° SSE 22:14:51 44° E 22:17:53 10° NNE
STARLINK-1210 3.5 22:12:08 10° WNW 22:16:17 76° SSW 22:20:06 12° ESE
STARLINK-1200 3.7 22:14:21 10° W 22:18:30 78° N 22:22:40 10° E
Cosmos 1777 Rocket 4.3 22:14:20 10° NNW 22:19:33 63° ENE 22:23:18 19° SE
Cosmos 1655 Rocket 4.0 22:15:01 19° S 22:19:40 87° E 22:26:00 10° N
SL-4 R/B 0.3 22:20:17 69° SE 22:20:27 76° ENE 22:22:38 10° NNW
STARLINK-1219 3.5 22:17:06 10° WNW 22:21:15 73° SSW 22:24:52 13° ESE
Cosmos 1758 4.4 22:19:16 10° NNW 22:23:00 36° W 22:25:25 19° SSW
ATLAS 5 CENTAUR R/B 1.6 22:21:46 25° SSW 22:23:17 42° SE 22:25:24 10° ENE
STARLINK-1192 3.7 22:19:21 10° W 22:23:30 79° N 22:27:40 10° E
STARLINK-52 3.9 22:26:27 29° SE 22:26:27 29° SE 22:28:53 10° E
STARLINK-1211 3.5 22:22:06 10° WNW 22:26:14 70° SSW 22:29:40 14° ESE
Cosmos 2228 3.3 22:22:03 10° N 22:26:15 56° ENE 22:28:36 24° SE
Meteor 2-15 4.4 22:20:48 10° N 22:26:59 87° E 22:31:06 22° S
Cosmos 1726 Rocket 4.1 22:22:48 10° N 22:27:00 48° ENE 22:29:30 22° SE
Terra 3.9 22:23:58 10° SW 22:27:09 18° W 22:30:21 10° NW
SL-4 R/B 2.5 22:22:59 10° SW 22:27:40 53° SSE 22:32:22 10° E
STARLINK-1244 3.7 22:24:19 10° W 22:28:29 79° N 22:32:39 10° E
ERBS 4.0 22:26:48 10° WNW 22:29:53 35° N 22:33:00 10° ENE
STARLINK-1234 4.3 22:27:39 10° W 22:30:16 25° SW 22:30:16 25° SW
STARLINK-1245 3.5 22:27:04 10° WNW 22:31:11 67° SSW 22:34:26 16° ESE
Cosmos 1300 4.4 22:27:58 10° NNE 22:31:13 25° ENE 22:33:33 15° ESE
In-Cosmos 22 4.0 22:30:05 23° S 22:33:28 79° E 22:38:46 10° NNE
STARLINK-1138 3.7 22:29:19 10° W 22:33:28 80° N 22:37:38 10° E
STARLINK-1233 3.6 22:32:01 10° WNW 22:36:09 64° SSW 22:39:12 17° SE
Cosmos 2266 Rocket 3.9 22:33:43 21° S 22:37:56 88° E 22:44:01 10° N
STARLINK-1143 3.7 22:34:17 10° W 22:38:26 81° N 22:42:36 10° E
STARLINK-1204 3.6 22:37:01 10° WNW 22:41:07 61° SSW 22:43:59 19° SE
SJ 16-02 3.3 22:38:56 10° N 22:42:38 25° NE 22:46:19 10° ESE
STARLINK-1241 3.6 22:39:18 10° W 22:43:28 82° N 22:47:37 10° E
STARLINK-1238 3.6 22:42:01 10° WNW 22:46:06 58° SSW 22:48:47 20° SE
Meteor 2-15 Rocket 4.4 22:40:44 10° NNW 22:46:55 84° W 22:50:55 23° S
Helios 1B rocket 4.2 22:45:11 10° NE 22:48:20 21° E 22:50:09 16° SE
STARLINK-1239 3.6 22:44:16 10° W 22:48:26 84° N 22:52:36 10° E
Cosmos 1536 Rocket 4.4 22:45:43 17° SW 22:48:47 45° WNW 22:53:00 10° N
Cosmos 1674 2.6 22:48:20 32° S 22:49:58 75° E 22:53:47 10° NNE
STARLINK-1201 3.7 22:47:00 10° WNW 22:51:04 55° SSW 22:53:33 22° SE
Cosmos 1271 Rocket 4.4 22:49:29 12° SW 22:52:36 29° WNW 22:56:05 10° N
STARLINK-1240 3.6 22:49:14 10° W 22:53:24 85° N 22:57:34 10° E
STARLINK-1206 3.7 22:52:00 10° WNW 22:56:03 52° SSW 22:58:21 23° SE
STARLINK-60 2.7 22:53:01 10° WSW 22:56:11 76° SSE 22:59:24 10° ENE
Cosmos 2219 3.6 22:51:43 10° NNW 22:57:23 62° NE 23:02:17 14° SE
COSMOS 2455 2.8 22:52:50 17° SSW 22:57:38 82° SE 23:03:42 10° NE
STARLINK-1216 3.6 22:54:12 10° W 22:58:22 87° N 23:02:32 10° E
STARLINK-1203 3.6 22:54:17 10° W 22:58:30 87° N 23:02:44 10° E
USA 215 3.3 22:52:56 14° SE 22:58:37 60° SW 23:05:06 10° WNW
STARLINK-1205 3.8 22:56:58 10° WNW 23:01:00 50° SSW 23:03:07 25° SE
Cosmos 2297 Rocket 2.7 22:56:03 10° NNW 23:01:39 57° NE 23:07:00 11° SE
Cosmos 1707 4.4 22:59:44 13° SW 23:02:37 27° WNW 23:05:59 10° N
STARLINK-1237 3.6 22:59:12 10° WNW 23:03:22 89° N 23:07:31 10° ESE
Helios 1A 3.0 23:01:35 29° S 23:03:40 75° WSW 23:07:53 10° NNW
Lacrosse 4 Rocket 3.3 23:01:30 10° NNW 23:05:22 29° NE 23:09:08 10° E
Cosmos 1726 3.7 23:02:35 10° NW 23:05:39 25° W 23:07:20 18° SW
STARLINK-1218 3.8 23:01:58 10° WNW 23:05:59 47° SSW 23:07:55 26° SSE
STARLINK-1202 3.5 23:04:11 10° WNW 23:08:21 89° SSW 23:12:30 10° ESE
STARLINK-1368 4.4 23:08:28 27° SE 23:08:28 27° SE 23:11:43 10° E
Cosmos 1174 3.6 23:06:36 23° SW 23:08:34 74° NW 23:12:34 10° NE
Timation 2 Rocket 4.0 23:02:42 10° NW 23:08:59 65° WSW 23:12:55 23° SSE
Cosmos 2058 Rocket 3.1 23:05:05 10° N 23:09:33 81° E 23:11:58 27° SSE
COSMOS 2487 4.1 23:07:00 10° NW 23:09:38 20° WSW 23:10:32 18° WSW
ALOS 2 3.4 23:07:47 24° SSW 23:09:56 40° W 23:14:05 10° NNW
STARLINK-1254 3.9 23:06:57 10° WNW 23:10:55 44° SSW 23:12:41 27° SSE
STARLINK-1369 4.3 23:11:47 28° SSE 23:11:55 29° SE 23:15:13 10° E
CENTAUR R/B 4.2 23:06:55 10° WNW 23:13:33 28° WSW 23:18:17 18° SSW
STARLINK-1372 4.2 23:15:07 30° SSE 23:15:22 30° SE 23:18:44 10° E
STARLINK-1231 4.0 23:11:56 10° WNW 23:15:52 42° SSW 23:17:27 28° SSE
Starlink 7 placeholder 4.1 23:17:57 18° ENE 23:17:57 18° ENE 23:18:36 10° ENE
ATLAS 3B R/B 3.3 23:11:02 10° NW 23:17:17 40° WSW 23:21:09 22° S
Meteor 2-5 Rocket 3.7 23:14:12 24° S 23:17:38 83° E 23:23:19 10° NNE
STARLINK-1246 3.5 23:14:10 10° WNW 23:18:20 85° SSW 23:22:28 10° ESE
STARLINK-1378 4.2 23:18:28 31° SSE 23:18:50 31° SSE 23:22:14 10° E
Cosmos 1606 Rocket 4.2 23:15:23 10° NNW 23:19:31 44° W 23:21:36 25° SSW
SeaSat 1 3.2 23:14:46 10° NNE 23:19:33 50° NW 23:24:18 10° SW
STARLINK-1232 4.1 23:16:57 10° W 23:20:50 39° SSW 23:22:15 29° SSE
SL-14 R/B 3.4 23:19:11 30° SSE 23:20:52 61° E 23:24:40 10° NNE
FALCON 9 DEB 3.2 23:20:07 33° SSW 23:21:18 51° SSE 23:24:40 10° ENE
STARLINK-1379 4.1 23:21:51 31° SSE 23:22:20 33° SSE 23:25:47 10° E
STARLINK-1224 3.5 23:19:08 10° WNW 23:23:18 82° SSW 23:27:27 10° ESE
STARLINK-1329 4.1 23:23:14 32° SSE 23:23:47 33° SSE 23:27:15 10° E
Cosmos 1943 Rocket 4.3 23:19:16 10° W 23:23:49 25° NW 23:28:25 10° NNE
Meteor 2-21 4.5 23:20:59 23° S 23:25:00 84° E 23:31:15 10° NNE
STARLINK-1208 4.1 23:21:55 10° W 23:25:46 37° SSW 23:27:00 30° S
STARLINK-29 2.8 23:24:02 20° WSW 23:26:06 73° SSE 23:29:18 10° ENE
SL-16 R/B 4.0 23:21:42 10° ESE 23:27:05 33° ENE 23:32:29 10° N
STARLINK-1362 4.0 23:26:40 32° S 23:27:21 35° SSE 23:30:51 10° E
ATLAS CENTAUR R/B 0.8 23:25:54 10° WNW 23:28:02 74° SSW 23:32:00 10° SE
STARLINK-1225 3.5 23:24:07 10° WNW 23:28:17 80° SSW 23:32:26 10° ESE
STARLINK-1271 4.2 23:26:58 10° W 23:30:45 35° SW 23:31:49 30° S
STARLINK-1373 4.0 23:30:05 32° S 23:30:54 37° SSE 23:34:28 10° E
NOSS 3-4 (A) 3.9 23:25:25 10° WSW 23:31:25 64° NW 23:37:58 10° NE
NOSS 3-4 (C) 3.9 23:25:31 10° WSW 23:31:31 64° NW 23:38:04 10° NE
RESURS DK-1 2.3 23:29:48 25° SW 23:32:08 86° WNW 23:36:18 10° NNE
STARLINK-1365 3.9 23:31:12 32° S 23:32:08 38° SSE 23:35:43 10° E
STARLINK-1230 3.5 23:29:06 10° WNW 23:33:15 77° SSW 23:37:24 10° ESE
STARLINK-1390 3.9 23:33:34 32° S 23:34:31 38° SSE 23:38:05 10° E
STARLINK-1154 4.3 23:31:58 10° W 23:35:42 33° SW 23:36:35 30° S
Cosmos 1812 Rocket 4.3 23:31:25 10° N 23:35:46 48° ENE 23:38:55 17° SE
Cosmos 1697 Rocket 4.3 23:32:47 14° SE 23:36:04 22° ESE 23:40:18 10° NE
Cosmos 2084 3.5 23:33:36 24° SSW 23:36:11 71° SE 23:40:39 10° NE
BREEZE-M R/B 3.9 23:31:44 12° SW 23:37:13 36° SSE 23:40:39 10° E
Cosmos 1626 2.1 23:36:00 32° SSW 23:37:39 84° WNW 23:41:24 10° N
STARLINK-1243 3.5 23:34:05 10° WNW 23:38:14 74° SSW 23:42:23 10° ESE
Cosmos 990 Rocket 4.3 23:33:12 10° NNW 23:38:29 64° ENE 23:43:10 13° SE
Cosmos 2227 Rocket 2.2 23:32:53 10° NNW 23:38:37 84° ENE 23:43:30 14° SSE
ATLAS CENTAUR R/B 2.3 23:35:56 10° WSW 23:40:05 47° NW 23:43:59 10° NE
Okean 1-7 Rocket 3.6 23:37:39 26° SSW 23:40:07 77° W 23:44:42 10° N
Cosmos 2369 Rocket 4.2 23:35:35 10° W 23:40:14 25° NW 23:44:54 10° NNE
STARLINK-1197 4.4 23:36:57 10° W 23:40:38 31° SW 23:41:21 29° SSW
CZ-4 R/B 3.9 23:36:20 10° NNE 23:41:09 71° ESE 23:43:50 25° S
STARLINK-1236 3.5 23:39:03 10° WNW 23:43:12 71° SSW 23:47:20 10° ESE
STARLINK-1198 4.4 23:41:57 10° W 23:45:34 29° SW 23:46:07 28° SSW
Landsat 4 4.2 23:45:25 10° N 23:49:01 49° WNW 23:51:00 24° SW
Cosmos 1602 Rocket 4.1 23:47:23 23° SSE 23:49:49 49° E 23:54:01 10° NNE
STARLINK-1269 3.5 23:49:02 10° WNW 23:53:09 65° SSW 23:57:16 10° ESE
